WZZ1511 EPBY-EPWA

Flight info

Callsign WZZ1511
Flight time 0h 39m
Altitude 25000
Route INTUN1H INTUN DCT NASOK DCT SORIX SORIX6U
Aircraft A20N/M-SDE2E3FGHIRWXY/LB1

Departure

Time 2026-04-30 18:15
Airport Ignacy Jan Paderewski Bydgoszcz Airport (EPBY)

Arrival

Time 2026-04-30 18:55
Airport Warsaw Chopin Airport (EPWA)
Time Latitude Longitude Altitude Speed Heading
2026-04-30 17:53 53.09475 17.99697 243 ft 0 kts 175°
2026-04-30 17:59 53.09498 17.99694 243 ft 1 kts 175°
2026-04-30 18:00 53.09530 17.99689 243 ft 2 kts 175°
2026-04-30 18:00 53.09570 17.99660 243 ft 2 kts 121°
2026-04-30 18:01 53.09576 17.99613 243 ft 2 kts 79°
2026-04-30 18:02 53.09575 17.99605 243 ft 0 kts 79°
2026-04-30 18:02 53.09603 17.99659 243 ft 4 kts 25°
2026-04-30 18:03 53.09680 17.99652 243 ft 0 kts 353°
2026-04-30 18:13 53.09712 17.99645 244 ft 9 kts 353°
2026-04-30 18:14 53.09823 17.99465 246 ft 14 kts 263°
2026-04-30 18:15 53.09519 17.96155 757 ft 137 kts 262°
2026-04-30 18:15 53.09143 17.91970 2146 ft 155 kts 268°
2026-04-30 18:16 53.09059 17.90754 2392 ft 167 kts 267°
2026-04-30 18:16 53.08600 17.86510 3037 ft 213 kts 247°
2026-04-30 18:17 53.07571 17.84580 3441 ft 235 kts 213°
2026-04-30 18:17 53.05985 17.83825 4077 ft 243 kts 180°
2026-04-30 18:17 53.04823 17.84006 4505 ft 247 kts 172°
2026-04-30 18:19 53.03656 17.84321 4817 ft 255 kts 166°
2026-04-30 18:19 53.02087 17.85677 5410 ft 256 kts 135°
2026-04-30 18:20 53.01128 17.88095 5984 ft 254 kts 104°
2026-04-30 18:20 53.00999 17.90955 6556 ft 248 kts 78°
2026-04-30 18:20 53.01276 17.93867 6827 ft 263 kts 76°
2026-04-30 18:20 53.01600 17.96928 7213 ft 270 kts 76°
2026-04-30 18:21 53.01898 17.99943 7765 ft 269 kts 77°
2026-04-30 18:21 53.02180 18.03024 8311 ft 269 kts 77°
2026-04-30 18:21 53.02443 18.06067 8849 ft 270 kts 77°
2026-04-30 18:21 53.02706 18.09175 9320 ft 271 kts 77°
2026-04-30 18:22 53.02965 18.12280 9811 ft 271 kts 77°
2026-04-30 18:22 53.03484 18.18522 10520 ft 278 kts 77°
2026-04-30 18:22 53.03756 18.21742 10616 ft 289 kts 77°
2026-04-30 18:23 53.04039 18.25119 10706 ft 299 kts 77°
2026-04-30 18:23 53.04333 18.28597 10791 ft 307 kts 76°
2026-04-30 18:23 53.04827 18.32090 10869 ft 312 kts 68°
2026-04-30 18:23 53.05624 18.35423 11037 ft 314 kts 60°
2026-04-30 18:24 53.07709 18.41797 11550 ft 314 kts 58°
2026-04-30 18:24 53.08754 18.44999 11774 ft 314 kts 58°
2026-04-30 18:24 53.09798 18.48207 11974 ft 316 kts 58°
2026-04-30 18:25 53.10832 18.51387 12174 ft 316 kts 58°
2026-04-30 18:25 53.12931 18.57846 12566 ft 318 kts 58°
2026-04-30 18:25 53.13984 18.61089 12759 ft 318 kts 58°
2026-04-30 18:26 53.15896 18.67723 13100 ft 325 kts 72°
2026-04-30 18:26 53.16055 18.71525 13289 ft 336 kts 91°
2026-04-30 18:26 53.15410 18.75324 13487 ft 344 kts 106°
2026-04-30 18:27 53.13586 18.82751 13847 ft 347 kts 107°
2026-04-30 18:27 53.12676 18.86441 14033 ft 347 kts 107°
2026-04-30 18:28 53.10839 18.93923 14370 ft 349 kts 106°
2026-04-30 18:28 53.09913 18.97661 14530 ft 350 kts 108°
2026-04-30 18:28 53.07316 19.04594 14798 ft 361 kts 123°
2026-04-30 18:29 53.05734 19.07842 14922 ft 361 kts 123°
2026-04-30 18:29 53.00998 19.17644 15267 ft 362 kts 122°
2026-04-30 18:30 52.98394 19.23033 15410 ft 363 kts 122°
2026-04-30 18:30 52.94686 19.30687 15578 ft 364 kts 122°
2026-04-30 18:31 52.93095 19.33962 15651 ft 364 kts 122°
2026-04-30 18:31 52.89935 19.40454 15765 ft 365 kts 123°
2026-04-30 18:32 52.86731 19.47019 15866 ft 366 kts 123°
2026-04-30 18:32 52.85126 19.50302 15916 ft 366 kts 123°
2026-04-30 18:32 52.81937 19.56808 16051 ft 366 kts 122°
2026-04-30 18:33 52.80323 19.60101 15904 ft 371 kts 122°
2026-04-30 18:33 52.77151 19.67045 15409 ft 384 kts 118°
2026-04-30 18:33 52.75650 19.70679 15180 ft 390 kts 118°
2026-04-30 18:34 52.74117 19.74395 15127 ft 392 kts 118°
2026-04-30 18:34 52.71032 19.81859 15072 ft 393 kts 118°
2026-04-30 18:34 52.69490 19.85583 15043 ft 393 kts 118°
2026-04-30 18:35 52.67959 19.89270 15002 ft 394 kts 118°
2026-04-30 18:35 52.66394 19.93041 14723 ft 402 kts 119°
2026-04-30 18:35 52.64784 19.96925 14174 ft 416 kts 119°
2026-04-30 18:36 52.61466 20.04881 13726 ft 423 kts 120°
2026-04-30 18:36 52.59794 20.08867 13638 ft 422 kts 120°
2026-04-30 18:36 52.56434 20.16850 13115 ft 429 kts 120°
2026-04-30 18:37 52.54749 20.20819 12981 ft 427 kts 120°
2026-04-30 18:37 52.53076 20.24844 13015 ft 422 kts 120°
2026-04-30 18:37 52.51441 20.28837 12982 ft 420 kts 119°
2026-04-30 18:37 52.49828 20.32837 12928 ft 419 kts 118°
2026-04-30 18:38 52.48242 20.36830 12856 ft 418 kts 118°
2026-04-30 18:38 52.46674 20.40842 12777 ft 417 kts 118°
2026-04-30 18:38 52.45145 20.44816 12651 ft 416 kts 117°
2026-04-30 18:38 52.43523 20.48934 11656 ft 438 kts 120°
2026-04-30 18:39 52.41755 20.53006 11337 ft 443 kts 124°
2026-04-30 18:39 52.39809 20.56948 11078 ft 444 kts 125°
2026-04-30 18:39 52.37907 20.60922 10883 ft 443 kts 124°
2026-04-30 18:39 52.36063 20.64921 11007 ft 432 kts 122°
2026-04-30 18:40 52.34353 20.68766 11510 ft 417 kts 122°
2026-04-30 18:40 52.32663 20.72600 11602 ft 413 kts 121°
2026-04-30 18:40 52.30995 20.76437 11583 ft 413 kts 121°
2026-04-30 18:40 52.29369 20.80235 11526 ft 409 kts 120°
2026-04-30 18:41 52.27816 20.84081 11278 ft 402 kts 117°
2026-04-30 18:41 52.26518 20.87970 10810 ft 377 kts 110°
2026-04-30 18:41 52.25521 20.91847 9930 ft 369 kts 112°
2026-04-30 18:41 52.24127 20.95377 8753 ft 373 kts 124°
2026-04-30 18:42 52.22425 20.98618 7144 ft 389 kts 129°
2026-04-30 18:42 52.19009 21.04899 5905 ft 356 kts 128°
2026-04-30 18:42 52.17394 21.07966 4805 ft 356 kts 129°
2026-04-30 18:45 52.01640 21.24903 3023 ft 215 kts 148°
2026-04-30 18:45 52.00387 21.26078 2994 ft 200 kts 151°
2026-04-30 18:45 51.99155 21.27136 2999 ft 201 kts 151°
2026-04-30 18:46 51.97903 21.28217 3000 ft 206 kts 151°
2026-04-30 18:46 51.96612 21.29332 3000 ft 214 kts 151°
2026-04-30 18:46 51.95262 21.30496 3000 ft 225 kts 151°
2026-04-30 18:46 51.93772 21.31349 2991 ft 239 kts 177°
2026-04-30 18:47 51.92101 21.30865 3004 ft 254 kts 208°
2026-04-30 18:47 51.90717 21.29008 2998 ft 263 kts 237°
2026-04-30 18:47 51.90081 21.26426 2995 ft 236 kts 268°
2026-04-30 18:47 51.90364 21.23891 3006 ft 240 kts 300°
2026-04-30 18:48 51.91503 21.21841 3004 ft 258 kts 327°
2026-04-30 18:48 51.93153 21.20345 2996 ft 272 kts 333°
2026-04-30 18:48 51.94731 21.18902 2996 ft 255 kts 329°
2026-04-30 18:48 51.96158 21.17337 2993 ft 239 kts 324°
2026-04-30 18:49 51.97426 21.15717 2993 ft 224 kts 321°
2026-04-30 18:49 51.98570 21.14114 2994 ft 210 kts 320°
2026-04-30 18:49 51.99615 21.12580 3004 ft 193 kts 319°
2026-04-30 18:49 52.00547 21.11185 2989 ft 172 kts 319°
2026-04-30 18:50 52.01430 21.10056 2992 ft 152 kts 328°
2026-04-30 18:50 52.02279 21.09215 2989 ft 136 kts 332°
2026-04-30 18:50 52.03104 21.08482 2997 ft 131 kts 333°
2026-04-30 18:50 52.03881 21.07803 2965 ft 127 kts 333°
2026-04-30 18:51 52.04663 21.07122 2824 ft 127 kts 333°
2026-04-30 18:51 52.05427 21.06456 2655 ft 125 kts 333°
2026-04-30 18:51 52.06200 21.05782 2489 ft 126 kts 333°
2026-04-30 18:51 52.06978 21.05104 2315 ft 127 kts 333°
2026-04-30 18:52 52.07754 21.04426 2143 ft 127 kts 333°
2026-04-30 18:52 52.08522 21.03756 1968 ft 126 kts 333°
2026-04-30 18:52 52.09302 21.03075 1789 ft 127 kts 333°
2026-04-30 18:52 52.10082 21.02394 1620 ft 127 kts 333°
2026-04-30 18:53 52.10859 21.01715 1448 ft 128 kts 332°
2026-04-30 18:53 52.11648 21.01024 1277 ft 129 kts 332°
2026-04-30 18:53 52.12441 21.00332 1086 ft 129 kts 332°
2026-04-30 18:53 52.13231 20.99641 903 ft 128 kts 333°
2026-04-30 18:54 52.14018 20.98954 730 ft 128 kts 333°
2026-04-30 18:54 52.14798 20.98270 562 ft 127 kts 333°
2026-04-30 18:54 52.15569 20.97595 393 ft 127 kts 332°
2026-04-30 18:54 52.16328 20.96929 356 ft 100 kts 332°
2026-04-30 18:55 52.16786 20.96528 353 ft 66 kts 331°
2026-04-30 18:55 52.17288 20.96245 355 ft 19 kts
2026-04-30 18:55 52.17387 20.96277 357 ft 2 kts 44°
2026-04-30 18:56 52.17388 20.96278 357 ft 0 kts 44°
2026-04-30 18:57 52.17428 20.96350 358 ft 9 kts 43°
2026-04-30 18:57 52.17470 20.96443 353 ft 12 kts 62°
2026-04-30 18:57 52.17520 20.96542 355 ft 11 kts 13°
2026-04-30 18:58 52.17569 20.96477 353 ft 6 kts 243°
2026-04-30 18:58 52.17561 20.96452 355 ft 0 kts 243°